Date,TemperatureHighF,TemperatureAvgF,TemperatureLowF,DewpointHighF,DewpointAvgF,DewpointLowF,HumidityHigh,HumidityAvg,HumidityLow,PressureMaxIn,PressureMinIn,WindSpeedMaxMPH,WindSpeedAvgMPH,GustSpeedMaxMPH,PrecipitationSumIn
2013-1-1,37,32,19,27,18,7,71,59,46,29.93,29.71,14,4,21,0.00
2013-1-2,30,21,12,17,9,1,70,60,52,30.10,29.89,9,2,19,0.00
2013-1-3,26,16,6,10,1,-5,64,53,31,30.14,30.00,5,2,11,0.00
2013-1-4,39,30,20,24,20,10,80,67,52,29.99,29.81,15,2,20,0.00
2013-1-5,42,34,24,25,21,16,84,62,37,30.25,29.84,9,2,16,0.00
2013-1-6,44,34,26,29,26,21,87,74,54,30.23,29.93,7,1,15,0.00
2013-1-7,39,34,28,30,25,16,88,71,45,30.40,29.96,7,1,15,0.00
2013-1-8,47,38,29,29,28,26,91,71,49,30.36,30.25,13,2,20,0.00
2013-1-9,45,37,26,36,30,24,94,76,57,30.39,29.97,8,1,14,0.00
2013-1-10,48,42,34,29,25,23,67,51,39,30.53,30.03,14,4,27,0.00
2013-1-11,41,35,27,36,29,23,94,78,63,30.52,30.22,3,0,8,0.13
2013-1-12,45,42,38,43,40,36,97,95,91,30.23,30.12,2,0,5,0.02
2013-1-13,53,47,42,50,46,41,98,95,89,30.15,29.98,6,1,12,0.00
2013-1-14,62,53,43,53,43,28,94,72,40,30.24,29.84,10,3,14,0.00
2013-1-15,42,39,35,28,26,24,69,60,54,30.31,30.21,3,1,8,0.00
2013-1-16,35,33,30,32,30,23,96,89,62,30.24,29.82,3,1,5,0.12
2013-1-17,42,36,30,33,28,15,95,75,53,30.08,29.83,10,2,20,0.31
2013-1-18,30,23,18,14,1,-5,53,39,27,30.45,30.06,9,3,17,0.00
2013-1-19,49,37,23,33,22,6,75,57,39,30.39,29.89,11,3,20,0.00
2013-1-20,54,42,29,34,26,10,74,54,33,29.92,29.54,18,5,28,0.00
2013-1-21,29,25,22,21,11,5,89,56,37,30.10,29.80,7,2,17,0.00
2013-1-22,25,21,14,20,8,-2,91,61,36,30.08,29.75,11,3,17,0.00
2013-1-23,16,12,7,1,-7,-11,63,43,29,30.14,30.06,12,4,21,0.00
2013-1-24,21,12,3,-6,-9,-12,55,40,24,30.22,30.06,13,4,21,0.00
2013-1-25,24,17,9,13,-6,-12,84,38,23,30.30,30.07,11,3,17,0.00
2013-1-26,25,18,12,13,3,-6,85,56,29,30.23,30.00,11,2,14,0.00
2013-1-27,31,22,13,4,1,-5,64,43,26,30.46,30.23,12,3,16,0.00
2013-1-28,32,26,20,28,13,2,93,62,32,30.45,30.01,4,1,7,0.00
2013-1-29,34,31,26,33,28,24,95,90,84,30.19,30.02,2,0,3,0.13
2013-1-30,63,50,34,58,48,33,98,92,83,30.15,29.46,12,3,18,0.20
2013-1-31,61,49,32,58,37,15,94,67,37,29.59,28.97,18,7,30,0.15